New River MCAS, NC

5:23 AM EDT on June 29, 2017 (GMT -0400)
New River Marine Corps Air Station

Weather History for KNCA - July, 2013

Change the Weather History Date:

Sunday, July 28, 2013

  Actual Average Record
Temperature  
Mean Temperature 80 °F -  
Max Temperature 88 °F 85 °F 99 °F (2010)
Min Temperature 73 °F 69 °F 66 °F (2001)
Cooling Degree Days 14    
Growing Degree Days 30 (Base 50)    
Moisture  
Dew Point 73 °F    
Average Humidity 85    
Maximum Humidity 100    
Minimum Humidity 61    
Precipitation  
Precipitation 0.30 in - - ()
Sea Level Pressure  
Sea Level Pressure 29.98 in    
Wind  
Wind Speed 5 mph (SSW)    
Max Wind Speed 22 mph    
Max Gust Speed 29 mph    
Visibility 8 miles    
Events Rain , Thunderstorm    
Averages and records for this station are not official NWS values.
T = Trace of Precipitation, MM = Missing Value Source: NWS Daily Summary

Daily Weather History Graph

Daily Weather History Graph

Search for Another Location

Airport or City:

Trip Planner

Search our weather history database for the weather conditions in past years. The results will help you decide how hot, cold, wet, or windy it might be!

Date:

Astronomy

Jul. 28, 2013 Rise Set
Actual Time 6:16 AM EDT 8:15 PM EDT
Civil Twilight 5:49 AM EDT 8:42 PM EDT
Nautical Twilight 5:15 AM EDT 9:16 PM EDT
Astronomical Twilight 4:38 AM EDT 9:53 PM EDT
Moon 11:55 PM EDT (7/28) 12:38 PM EDT (7/28)
Length of Visible Light 14h 53m
Length of Day
13h 58m
Waning Gibbous, 61% of the Moon is Illuminated
Jul 28
Waning Gibbous
Jul 29
Last Quarter
Aug 6
New
Aug 14
First Quarter
Aug 20
Full

Hourly Weather History & Observations

Time (EDT) Temp. Heat Index Dew Point Humidity Pressure Visibility Wind Dir Wind Speed Gust Speed Precip Events Conditions
12:56 AM 75.9 °F - 73.9 °F 94% 29.99 in 10.0 mi South 4.6 mph - N/A   Clear
2:04 AM 75.2 °F - 73.4 °F 94% 29.94 in 10.0 mi Calm Calm - N/A   Mostly Cloudy
2:18 AM 75.2 °F - 73.4 °F 94% 29.94 in 10.0 mi Calm Calm - N/A   Scattered Clouds
2:56 AM 75.0 °F - 73.9 °F 96% 29.95 in 10.0 mi SSE 3.5 mph - N/A   Scattered Clouds
3:09 AM 75.2 °F - 73.4 °F 94% 29.93 in 9.0 mi SE 3.5 mph - N/A   Mostly Cloudy
3:16 AM 75.2 °F - 73.4 °F 94% 29.93 in 9.0 mi SSE 3.5 mph - N/A   Mostly Cloudy
3:56 AM 75.9 °F - 73.9 °F 94% 29.92 in 10.0 mi Calm Calm - N/A   Clear
4:05 AM 75.2 °F - 73.4 °F 94% 29.92 in 10.0 mi South 3.5 mph - N/A Thunderstorm Thunderstorm
4:21 AM 75.2 °F - 73.4 °F 94% 29.92 in 10.0 mi Calm Calm - N/A   Clear
4:56 AM 75.0 °F - 73.0 °F 94% 29.94 in 9.0 mi Calm Calm - N/A   Scattered Clouds
5:56 AM 73.9 °F - 73.0 °F 97% 29.94 in 8.0 mi Calm Calm - N/A   Clear
6:33 AM 73.4 °F - 73.4 °F 100% 29.94 in 7.0 mi West 4.6 mph - N/A   Partly Cloudy
6:56 AM 73.0 °F - 72.0 °F 96% 29.96 in 6.0 mi West 3.5 mph - N/A   Partly Cloudy
7:56 AM 75.0 °F - 73.0 °F 94% 29.99 in 9.0 mi WSW 3.5 mph - N/A   Clear
8:56 AM 79.0 °F - 73.9 °F 84% 29.99 in 10.0 mi West 5.8 mph - N/A   Clear
9:56 AM 81.0 °F 86.2 °F 73.9 °F 79% 29.99 in 10.0 mi WSW 4.6 mph - N/A   Scattered Clouds
10:03 AM 82.4 °F 88.2 °F 73.4 °F 74% 29.98 in 10.0 mi West 6.9 mph - N/A   Mostly Cloudy
10:17 AM 82.4 °F 88.2 °F 73.4 °F 74% 29.98 in 10.0 mi West 6.9 mph - N/A   Scattered Clouds
10:56 AM 84.0 °F 91.2 °F 73.9 °F 72% 30.01 in 10.0 mi WSW 5.8 mph - N/A   Partly Cloudy
11:56 AM 82.0 °F 87.4 °F 73.0 °F 74% 30.00 in 10.0 mi SW 4.6 mph - N/A   Clear
12:56 PM 86.0 °F 92.2 °F 72.0 °F 63% 30.00 in 10.0 mi Variable 4.6 mph - N/A   Partly Cloudy
1:56 PM 86.0 °F 91.5 °F 71.1 °F 61% 29.99 in 10.0 mi SSW 5.8 mph - N/A   Partly Cloudy
2:56 PM 84.0 °F 91.2 °F 73.9 °F 72% 29.98 in 10.0 mi South 9.2 mph - N/A   Overcast
3:22 PM 84.2 °F 90.9 °F 73.4 °F 70% 29.97 in 10.0 mi South 10.4 mph - N/A   Mostly Cloudy
3:34 PM 82.4 °F 88.2 °F 73.4 °F 74% 29.97 in 10.0 mi South 6.9 mph - N/A   Mostly Cloudy
3:56 PM 80.1 °F 84.5 °F 73.9 °F 81% 29.99 in 1.2 mi SSW 21.9 mph 28.8 mph 0.11 in Rain Heavy Rain
3:59 PM 77.0 °F - 71.6 °F 83% 29.98 in 0.8 mi South 16.1 mph 28.8 mph 0.07 in Rain Heavy Rain
4:06 PM 77.0 °F - 69.8 °F 78% 29.98 in 1.2 mi South 8.1 mph - 0.10 in Rain Light Rain
4:10 PM 75.2 °F - 71.6 °F 89% 29.98 in 4.0 mi South 11.5 mph - 0.10 in Rain Light Rain
4:20 PM 78.8 °F - 73.4 °F 83% 29.98 in 1.8 mi South 9.2 mph - 0.19 in Rain Heavy Rain
4:28 PM 78.8 °F - 75.2 °F 89% 29.98 in 4.0 mi South 5.8 mph - 0.19 in Rain Light Rain
4:36 PM 78.8 °F - 75.2 °F 89% 29.98 in 9.0 mi SSE 4.6 mph - 0.19 in Rain , Thunderstorm Light Thunderstorms and Rain
4:52 PM 80.6 °F 86.2 °F 75.2 °F 84% 29.98 in 9.0 mi South 4.6 mph - 0.19 in   Partly Cloudy
4:56 PM 82.0 °F 89.4 °F 75.9 °F 82% 29.99 in 10.0 mi South 6.9 mph - 0.19 in   Partly Cloudy
5:56 PM 82.0 °F 87.9 °F 73.9 °F 76% 30.00 in 10.0 mi South 13.8 mph - N/A   Clear
6:56 PM 81.0 °F 86.7 °F 75.0 °F 82% 30.01 in 10.0 mi South 10.4 mph - N/A   Clear
7:56 PM 80.1 °F 85.1 °F 75.0 °F 85% 30.02 in 9.0 mi SSW 6.9 mph - N/A   Partly Cloudy
8:56 PM 78.1 °F - 71.1 °F 79% 30.02 in 10.0 mi South 6.9 mph - N/A   Clear
9:56 PM 77.0 °F - 73.9 °F 90% 30.03 in 10.0 mi South 5.8 mph - N/A   Clear
10:56 PM 77.0 °F - 73.9 °F 90% 30.04 in 10.0 mi South 3.5 mph - N/A   Clear
11:56 PM 77.0 °F - 75.0 °F 94% 30.04 in 8.0 mi Calm Calm - N/A   Clear